IOD1_STARTICAL

Satellite information

Favourite Embed

Satellite Type and Status

PAYLOADIN ORBIT

Key statistics

Satellite IOD1_STARTICAL at a glance.

Uptime

174

Days in orbit

Revolutions

≈ 15.3

Per day

Orbit

SSO

Sun Synchronous Orbit

Inclination

97.4

Latest

Satellite identification and parameters

Extended collection of information and parameters for IOD1_STARTICAL.

Object identification

Identified? True

Debris? False

Object name: IOD1_STARTICAL

International designator: 2025-052C

Object number (NORAD): 63212

Object ID (CCSDS): 63212

Country: SPAIN (SPN)

Current information (Y/N): Y

RCS size: MEDIUM

Orbital parameters

Period: 94.216 minutes

Inclination: 97.4141 deg

SMA: 6858.744 km

Apoapsis: 484.446 km

Periapsis: 476.772 km

RAAN: 140.7251 deg

Eccentricy: 0.00055943

Argument of periapsis: 77.686 deg

Mean anomaly: 282.5005 deg

Mean motion: 15.28395919 rev/day

Mean motion (dot): 0.0002831 rev/day2

B* drag term: 0.0010234937 1/REarth

Two-line elements (TLE)

Creation date: Sept. 4, 2025, 10:13 a.m.

Reference frame: TEME

Reference center: EARTH

Epoch: Sept. 4, 2025, 4:46 a.m. UTC

TLE line 0: 0 IOD1_STARTICAL

TLE line 1: 1 63212U 25052C 25247.19913855 .00028310 00000-0 10235-2 0 9996

TLE line 2: 2 63212 97.4141 140.7251 0005594 77.6860 282.5005 15.28395919 26472

Live tracking on map

Real-time ground track for satellite IOD1_STARTICAL.

In-orbit conjunctions

There are no conjunctions computed for IOD1_STARTICAL, at the moment. Check back to stay up to date, as we update our databases every day.

Go to all conjunctions

Associated space launch

Dedicated rideshare flight to a sun-synchronous orbit with dozens of small microsatellites and nanosatellites for commercial and government customers.

IOD1_STARTICAL was lifted into orbit during the mission ‘Falcon 9 Block 5 | Transporter 13 (Dedicated SSO Rideshare)’, on board a Falcon 9 space rocket.

The launch took place on March 15, 2025, 6:43 a.m. from Space Launch Complex 4E.

For more information about the launch, click the button.

Launch to space Falcon 9 Block 5 | Transporter 13 (Dedicated SSO Rideshare)
Falcon 9 Block 5 | Transporter 13 (Dedicated SSO Rideshare)

Agency: SpaceX

Status: Launch Successful

Launch date: March 15, 2025, 6:43 a.m. UTC

Rocket: Falcon 9

Launch pad: Space Launch Complex 4E

Location: Vandenberg SFB, CA, USA

...

Latest news about this satellite

News about space launch
Varda Space reentry capsule lands in Australia, completes hypersonic research mission

W-3 focused on gathering data for military hypersonic research. The post Varda Space reentry capsule lands in Australia, completes hypersonic research mission appeared first on SpaceNews.

News about space launch
Intelligence and dual-use commercial satellites launch on Transporter-13

Among the 74 payloads on SpaceX’s Transporter-13 mission was a technology demonstrator from the National Reconnaissance Office The post Intelligence and dual-use commercial satellites launch on Transporter-13 appeared first on SpaceNews.

News about space launch
NASA’s EZIE Launches on Mission to Study Earth’s Electrojets

Under the nighttime California sky, NASA’s EZIE (Electrojet Zeeman Imaging Explorer) mission launched aboard a SpaceX Falcon 9 rocket at 11:43 p.m. PDT on March 14. Taking off from Vandenberg Space Force Base near Santa Barbara, the EZIE mission’s trio of...


Newsletter sign-up

Weekly statistics, charts and insights to help you stay on top of the space industry.